[[{"header":{"parameterUnit":"m.s-1","parameterCategory":1,"la1":30.2991,"la2":30.254,"lo1":-89.0895,"lo2":-89.0444,"dy":0.0017,"dx":0.0017,"nx":28,"ny":28,"refTime":"2024-10-15T21:00:00:Z","depth":0,"parameterNumber":2,"parameterNumberName":"U-component_of_WINDS"},"data":[0,0,0,0,0,0,0,0,0,0,0,0,0,0,0,0,0,0,0,0,0,0,0,0,0,0,0,0,0,0,0,0,0,0,0,0,0,0,0,0,0,0,0,0,0,0,0,0,0,0,0,0,0,0,0,0,0,0,-5.1816,-5.1817,0,-5.1869,-5.1869,-5.187,-5.1741,-5.1736,-5.1732,-5.1729,-5.1782,-5.1787,-5.1792,0,0,0,0,0,0,0,0,0,0,0,0,0,-5.1602,-5.1607,-5.1816,-5.1817,-5.1818,-5.1869,-5.187,-5.187,-5.1741,-5.1736,-5.1731,-5.1727,-5.178,-5.1786,-5.1792,0,0,0,0,0,0,0,0,0,0,0,0,0,-5.1679,-5.1608,-5.1816,-5.176,-5.1755,-5.1869,-5.187,-5.187,-5.1742,-5.1736,-5.173,-5.1724,-5.1778,-5.1785,-5.1793,-5.1964,0,0,-5.1817,-5.182,0,0,0,0,0,0,0,0,-5.1675,-5.1687,-5.1767,-5.1764,-5.1759,-5.1792,-5.1813,-5.1902,-5.1744,-5.1747,-5.1728,-5.1721,-5.179,-5.1796,-5.182,-5.1966,-5.1969,-5.1818,-5.1822,-5.1826,-5.1828,0,0,0,0,0,0,0,-5.167,-5.1684,-5.1837,-5.1768,-5.1763,-5.1731,-5.1735,-5.1829,-5.1802,-5.1746,-5.1737,-5.1745,-5.1786,-5.1812,-5.182,-5.1969,-5.1817,-5.1824,-5.1829,-5.1832,-5.2258,-5.2265,0,0,0,0,0,0,-5.1672,-5.1681,-5.1835,-5.1839,-5.1701,-5.174,-5.1744,-5.1787,-5.1801,-5.1797,-5.175,-5.1739,-5.1802,-5.1811,-5.1821,-5.2022,-5.1826,-5.1833,-5.1838,-5.2252,-5.226,-5.2267,0,0,0,0,0,0,-5.1668,-5.1687,-5.1833,-5.1757,-5.1773,-5.175,-5.1799,-5.1792,-5.1818,-5.1804,-5.1798,-5.1782,-5.1798,-5.181,-5.1929,-5.2022,-5.1837,-5.1844,-5.2244,-5.2254,-5.2263,-5.2426,0,0,0,0,0,0,-5.1662,-5.1686,-5.1752,-5.176,-5.1778,-5.1942,-5.1805,-5.1797,-5.1832,-5.1817,-5.1832,-5.1829,-5.1794,-5.1918,-5.1937,-5.203,-5.185,-5.2235,-5.2248,-5.226,-5.2413,-5.2441,-5.2464,0,0,0,0,0,-5.1655,-5.1795,-5.1756,-5.1775,-5.1859,-5.1947,-5.1958,-5.1915,-5.184,-5.1905,-5.1896,-5.1828,-5.2009,-5.1932,-5.1952,-5.2048,-5.2229,-5.2245,-5.2259,-5.2401,-5.2435,-5.2464,0,0,0,0,0,0,-5.1799,-5.1795,-5.1751,-5.1898,-5.1924,-5.1925,-5.2006,-5.1952,-5.2,-5.1985,-5.1929,-5.1933,-5.2063,-5.2067,-5.1981,-5.2214,-5.2106,-5.2126,-5.2207,-5.2239,-5.2265,-5.2262,-5.1856,0,0,0,0,0,-5.1848,-5.192,-5.1913,-5.2043,-5.2058,-5.2031,-5.2067,-5.2032,-5.2056,-5.2067,-5.2066,-5.2092,-5.2154,-5.2196,-5.2253,-5.2411,-5.2413,-5.2487,-5.2513,-5.2535,-5.2553,-5.2637,-5.267,-5.2316,-5.2316,-5.2315,0,0,-5.195,-5.1956,-5.2006,-5.2072,-5.2088,-5.2164,-5.2041,-5.2126,-5.2182,-5.2079,-5.2192,-5.2193,-5.2217,-5.2357,-5.2419,-5.2365,-5.2651,-5.2554,-5.2571,-5.2578,-5.2656,-5.2689,-5.2719,-5.2326,-5.2324,-5.2322,0,0,-5.2174,-5.2187,-5.2297,-5.2315,-5.234,-5.2321,-5.2347,-5.2356,-5.2353,-5.2465,-5.239,-5.2454,-5.2563,-5.2584,-5.2609,-5.284,-5.278,-5.2859,-5.2996,-5.3079,-5.3107,-5.3131,-5.3214,-5.3245,-5.2877,-5.2878,-5.2878,0,-5.2298,-5.241,-5.236,-5.2451,-5.2483,-5.2393,-5.2504,-5.2523,-5.2566,-5.259,-5.2528,-5.2662,-5.2672,-5.2816,-5.2872,-5.2895,-5.2923,-5.2859,-5.3107,-5.3131,-5.3153,-5.3231,-5.3263,-5.2887,-5.2886,-5.2885,-5.2884,0,-5.256,-5.2639,-5.2724,-5.2769,-5.2809,-5.291,-5.2875,-5.2922,-5.2882,-5.2869,-5.2984,-5.2993,-5.305,-5.3081,-5.3043,-5.3219,-5.3185,-5.3116,-5.3007,-5.3197,-5.327,-5.33,-5.2901,-5.2898,-5.2895,-5.2892,0,0,-5.2879,-5.2893,-5.2926,-5.2944,-5.2965,-5.3025,-5.312,-5.3176,-5.3218,-5.3249,-5.3329,-5.3422,-5.3358,-5.3387,-5.335,-5.3422,-5.3605,-5.3344,-5.3344,-5.3393,-5.38,-5.3853,-5.3888,-5.3565,-5.357,-5.3574,-5.3798,0,-5.3101,-5.3267,-5.3225,-5.3389,-5.3461,-5.3376,-5.3459,-5.3481,-5.347,-5.3529,-5.3516,-5.3584,-5.3494,-5.3511,-5.3579,-5.3569,-5.3686,-5.3552,-5.3638,-5.3642,-5.3636,-5.3926,-5.3982,-5.4193,-5.3826,-5.3831,-5.3834,0,-5.3384,-5.3427,-5.3599,-5.3608,-5.3636,-5.3712,-5.3759,-5.3817,-5.3839,-5.3826,-5.3857,-5.3806,-5.3899,-5.3789,-5.3917,-5.3826,-5.3858,-5.3859,-5.3866,-5.3873,-5.3751,-5.3943,-5.4259,-5.4292,-5.3879,-5.3875,-5.3872,0,-5.3601,-5.3701,-5.3817,-5.3836,-5.3848,-5.3903,-5.3911,-5.3927,-5.3963,-5.4004,-5.4026,-5.4078,-5.4106,-5.4146,-5.411,-5.4032,-5.4244,-5.413,-5.4236,-5.4238,-5.4286,-5.4284,-5.4614,-5.4305,-5.4305,-5.4304,-5.4303,0,-5.3855,-5.3964,-5.3915,-5.3986,-5.4105,-5.4054,-5.4173,-5.4171,-5.4186,-5.4255,-5.4183,-5.4249,-5.4196,-5.4257,-5.4229,-5.434,-5.4353,-5.4345,-5.4336,-5.4352,-5.4354,-5.4374,-5.4359,-5.4312,-5.431,-5.4309,-5.4307,0,-5.4118,-5.4089,-5.421,-5.4212,-5.4215,-5.4302,-5.4303,-5.4369,-5.4352,-5.4441,-5.4458,-5.4433,-5.4501,-5.4468,-5.4539,-5.452,-5.4663,-5.4634,-5.4656,-5.4649,-5.4757,-5.4748,-5.5113,-5.5158,-5.482,-5.4823,-5.4826,0,-5.4283,-5.4364,-5.4375,-5.4416,-5.4429,-5.4496,-5.4532,-5.4485,-5.4525,-5.4556,-5.4618,-5.468,-5.4727,-5.484,-5.4828,-5.4881,-5.4854,-5.4978,-5.4861,-5.4875,-5.4857,-5.4853,-5.4861,-5.5002,-5.5006,-5.5009,-5.5012,0,-5.4579,-5.456,-5.4616,-5.4667,-5.4712,-5.475,-5.4781,-5.4818,-5.4771,-5.4821,-5.489,-5.4926,-5.4999,-5.5061,-5.5108,-5.5114,-5.5056,-5.5048,-5.5075,-5.5093,-5.5103,-5.51,-5.4721,-5.504,-5.5037,-5.5035,-5.5034,-5.5033,-5.4798,-5.4867,-5.4885,-5.4949,-5.4967,-5.4998,-5.506,-5.5051,-5.5108,-5.5163,-5.5131,-5.5212,-5.523,-5.5287,-5.5301,-5.5363,-5.5314,-5.5354,-5.5364,-5.5375,-5.539,-5.5092,-5.5371,-5.5371,-5.537,-5.5369,-5.5368,0,-5.5091,-5.5098,-5.5158,-5.5204,-5.5254,-5.5194,-5.5225,-5.5271,-5.5343,-5.5365,-5.5413,-5.5492,-5.5552,-5.5544,-5.5598,-5.5649,-5.5624,-5.5665,-5.5662,-5.5664,-5.5431,-5.5402,-5.5685,-5.5685,-5.5685,-5.5685,-5.5685,-5.5685,-5.525,-5.5363,-5.5347,-5.5467,-5.5473,-5.5552,-5.5575,-5.5603,-5.562,-5.5712,-5.5762,-5.5756,-5.5765,-5.582,-5.5872,-5.5867,-5.5891,-5.5943,-5.593,-5.5712,-5.5681,-5.5651,-5.5624,-5.5949,-5.5949,-5.6158,-5.616,-5.6161]},{"header":{"parameterUnit":"m.s-1","parameterCategory":1,"la1":30.2991,"la2":30.254,"lo1":-89.0895,"lo2":-89.0444,"dy":0.0017,"dx":0.0017,"nx":28,"ny":28,"refTime":"2024-10-15T21:00:00:Z","depth":0,"parameterNumber":3,"parameterNumberName":"V-component_of_WINDS"},"data":[0,0,0,0,0,0,0,0,0,0,0,0,0,0,0,0,0,0,0,0,0,0,0,0,0,0,0,0,0,0,0,0,0,0,0,0,0,0,0,0,0,0,0,0,0,0,0,0,0,0,0,0,0,0,0,0,0,0,-8.0115,-8.0116,0,-8.0203,-8.0204,-8.0205,-8.0114,-8.011,-8.0107,-8.0104,-8.0187,-8.0193,-8.0198,0,0,0,0,0,0,0,0,0,0,0,0,0,-7.9862,-7.9867,-8.0115,-8.0116,-8.0117,-8.0203,-8.0204,-8.0205,-8.0115,-8.011,-8.0106,-8.0102,-8.0186,-8.0192,-8.0199,0,0,0,0,0,0,0,0,0,0,0,0,0,-7.9963,-7.9869,-8.0115,-8.0083,-8.0081,-8.0203,-8.0204,-8.0206,-8.0115,-8.011,-8.0105,-8.01,-8.0183,-8.0191,-8.02,-8.0356,0,0,-8.0225,-8.0228,0,0,0,0,0,0,0,0,-7.9957,-7.9972,-8.0086,-8.0085,-8.0083,-8.0142,-8.0145,-8.0256,-8.0117,-8.0102,-8.0103,-8.0097,-8.0176,-8.0185,-8.0213,-8.036,-8.0364,-8.0226,-8.0231,-8.0234,-8.0237,0,0,0,0,0,0,0,-7.995,-7.9968,-8.015,-8.0088,-8.0086,-8.0061,-8.007,-8.0166,-8.0167,-8.0103,-8.0096,-8.0108,-8.0174,-8.0205,-8.0214,-8.0365,-8.0225,-8.0233,-8.0238,-8.0241,-8.0644,-8.065,0,0,0,0,0,0,-7.9948,-7.9963,-8.0147,-8.0152,-8.0006,-8.007,-8.008,-8.0128,-8.0166,-8.0167,-8.0113,-8.0104,-8.0193,-8.0204,-8.0217,-8.0402,-8.0234,-8.0242,-8.0247,-8.0638,-8.0645,-8.0652,0,0,0,0,0,0,-7.9943,-7.9965,-8.0143,-8.0056,-8.0077,-8.008,-8.0136,-8.0133,-8.0164,-8.0174,-8.0173,-8.0145,-8.019,-8.0205,-8.0322,-8.0403,-8.0246,-8.0253,-8.0632,-8.0641,-8.0649,-8.0774,0,0,0,0,0,0,-7.9936,-7.9964,-8.0025,-8.0058,-8.0082,-8.025,-8.0141,-8.0139,-8.0179,-8.0168,-8.0203,-8.0204,-8.0187,-8.0311,-8.0331,-8.0412,-8.026,-8.0624,-8.0636,-8.0646,-8.0763,-8.0786,-8.0806,0,0,0,0,0,-7.9927,-8.0056,-8.0029,-8.0051,-8.0159,-8.0255,-8.0268,-8.0248,-8.0186,-8.0246,-8.0253,-8.0203,-8.0392,-8.0323,-8.0345,-8.043,-8.0619,-8.0632,-8.0645,-8.0753,-8.0781,-8.0805,0,0,0,0,0,0,-8.003,-8.0059,-8.003,-8.0173,-8.0213,-8.024,-8.0315,-8.0279,-8.0335,-8.0322,-8.0292,-8.0301,-8.0425,-8.0439,-8.0363,-8.0583,-8.0495,-8.0513,-8.0569,-8.0596,-8.0618,-8.0611,-8.0266,0,0,0,0,0,-8.007,-8.0148,-8.0168,-8.0293,-8.0314,-8.0312,-8.0353,-8.0334,-8.0372,-8.0388,-8.0403,-8.0441,-8.0508,-8.0553,-8.0616,-8.0764,-8.077,-8.0833,-8.0855,-8.0873,-8.0888,-8.0966,-8.0994,-8.0694,-8.0694,-8.0694,0,0,-8.0152,-8.0178,-8.0228,-8.0314,-8.0342,-8.0422,-8.0326,-8.0414,-8.0472,-8.04,-8.0513,-8.0525,-8.0565,-8.0699,-8.0758,-8.0714,-8.0972,-8.0889,-8.0903,-8.0909,-8.0982,-8.1011,-8.1036,-8.0703,-8.0701,-8.07,0,0,-8.0342,-8.037,-8.0477,-8.0507,-8.0552,-8.055,-8.0575,-8.0608,-8.0614,-8.0727,-8.0675,-8.0742,-8.0859,-8.089,-8.092,-8.1122,-8.1078,-8.1144,-8.1256,-8.1332,-8.1356,-8.1377,-8.1447,-8.1473,-8.1159,-8.1159,-8.116,0,-8.0437,-8.0557,-8.0535,-8.0628,-8.0666,-8.0608,-8.0714,-8.0744,-8.0806,-8.0833,-8.0783,-8.0929,-8.0952,-8.1091,-8.1141,-8.1168,-8.1195,-8.1139,-8.1355,-8.1375,-8.1394,-8.1461,-8.1488,-8.1167,-8.1166,-8.1165,-8.1165,0,-8.0672,-8.0756,-8.0836,-8.09,-8.0948,-8.1046,-8.1037,-8.1088,-8.1065,-8.1067,-8.1181,-8.1207,-8.1273,-8.1305,-8.1282,-8.1441,-8.1412,-8.136,-8.127,-8.1431,-8.1493,-8.1519,-8.1178,-8.1175,-8.1173,-8.1171,0,0,-8.0928,-8.098,-8.101,-8.1038,-8.1083,-8.1146,-8.1241,-8.1309,-8.1352,-8.1396,-8.1474,-8.1575,-8.1527,-8.1562,-8.1542,-8.1609,-8.1766,-8.1548,-8.1548,-8.1586,-8.1941,-8.198,-8.201,-8.1738,-8.1742,-8.1746,-8.1937,0,-8.1119,-8.1287,-8.127,-8.1429,-8.1505,-8.145,-8.1533,-8.1568,-8.1573,-8.1636,-8.164,-8.1712,-8.1643,-8.1663,-8.1728,-8.1734,-8.1837,-8.172,-8.1807,-8.1811,-8.1798,-8.2043,-8.2084,-8.2263,-8.1961,-8.1966,-8.1969,0,-8.1363,-8.1419,-8.1586,-8.162,-8.1651,-8.1726,-8.1786,-8.1848,-8.1886,-8.1884,-8.1924,-8.1893,-8.1986,-8.1896,-8.2023,-8.1944,-8.1979,-8.1987,-8.1993,-8.1999,-8.1899,-8.2054,-8.232,-8.2346,-8.2007,-8.2004,-8.2001,0,-8.1532,-8.1649,-8.1764,-8.179,-8.1832,-8.1886,-8.1905,-8.1939,-8.198,-8.2032,-8.2058,-8.2119,-8.2152,-8.2199,-8.2184,-8.212,-8.2314,-8.2223,-8.2313,-8.2314,-8.2356,-8.2353,-8.2629,-8.2381,-8.238,-8.238,-8.2379,0,-8.1746,-8.185,-8.184,-8.1911,-8.2025,-8.2004,-8.2117,-8.2129,-8.216,-8.223,-8.2186,-8.2252,-8.2229,-8.2293,-8.2282,-8.2388,-8.2403,-8.2403,-8.2398,-8.2407,-8.2407,-8.2428,-8.2415,-8.2387,-8.2385,-8.2384,-8.2383,0,-8.1953,-8.1952,-8.2073,-8.2104,-8.2114,-8.2196,-8.2221,-8.2286,-8.2288,-8.2377,-8.2397,-8.2398,-8.2472,-8.2462,-8.2543,-8.2535,-8.2667,-8.2648,-8.2655,-8.265,-8.2741,-8.2732,-8.3039,-8.3078,-8.2806,-8.2809,-8.2811,0,-8.2089,-8.2168,-8.2208,-8.2253,-8.2277,-8.235,-8.2393,-8.2375,-8.242,-8.247,-8.2529,-8.2599,-8.2654,-8.2774,-8.278,-8.2842,-8.2823,-8.2927,-8.2832,-8.2837,-8.2823,-8.2818,-8.2825,-8.2945,-8.2948,-8.295,-8.2952,0,-8.233,-8.2326,-8.239,-8.2455,-8.2507,-8.2556,-8.26,-8.2639,-8.2625,-8.2678,-8.2754,-8.2797,-8.2881,-8.295,-8.3008,-8.3025,-8.2986,-8.2983,-8.3006,-8.3015,-8.3015,-8.3015,-8.2705,-8.2975,-8.2973,-8.2971,-8.297,-8.2969,-8.2505,-8.2573,-8.2612,-8.2684,-8.2716,-8.2759,-8.2822,-8.2832,-8.2896,-8.2964,-8.2949,-8.3034,-8.3069,-8.3143,-8.3167,-8.3232,-8.3193,-8.3229,-8.3237,-8.3246,-8.3256,-8.3006,-8.3242,-8.3242,-8.3241,-8.3241,-8.324,0,-8.2743,-8.2766,-8.2833,-8.2898,-8.2955,-8.2916,-8.2962,-8.3012,-8.3088,-8.3125,-8.3181,-8.3268,-8.3335,-8.3347,-8.3411,-8.346,-8.3443,-8.3477,-8.3472,-8.3477,-8.3287,-8.326,-8.3489,-8.3489,-8.3489,-8.3489,-8.3489,-8.3489,-8.2873,-8.2985,-8.2985,-8.3112,-8.3133,-8.3218,-8.3248,-8.3286,-8.3316,-8.3415,-8.3472,-8.348,-8.3507,-8.3572,-8.3631,-8.3633,-8.3657,-8.3698,-8.3693,-8.3515,-8.349,-8.3466,-8.344,-8.3704,-8.3704,-8.3876,-8.3878,-8.3879]}]]